Regional Weather Roundup
Issued by NWS Grand Forks, ND

Home | Current Version | Previous Version | Text Only | Print | Product List | Glossary On
Versions: 1 2 3 4 5 6 7 8 9 10 11 12 13 14 15 16 17 18 19 20 21 22 23 24 25 26 27 28 29 30 31 32 33 34 35 36 37 38 39 40 41 42 43 44 45 46 47 48 49 50
000
ASUS43 KFGF 251810
RWRFGF
PRAIRIE TO PINES  WEATHER ROUNDUP
NATIONAL WEATHER SERVICE EASTERN NORTH DAKOTA/GRAND FORKS ND
100 PM CDT THU AUG 25 2016

 **SATELLITE DATA USED TO AUGMENT SKY COVER AT AUTOMATED STATIONS**
 *****  WEATHER ACROSS EASTERN NORTH DAKOTA  *****

CITY           SKY/WX    TMP DP  RH WIND       PRES   REMARKS
GRAND FORKS    MOSUNNY   68  51  54 N20       30.02R
6HR MIN TEMP:  59; 6HR MAX TEMP:  68; 6HR PCP: TRACE;

GRAND FRKS AFB MOSUNNY   68  50  52 N13G22    30.03S
DEVILS LAKE    CLOUDY    63  50  62 NW15      30.09S
6HR MIN TEMP:  55; 6HR MAX TEMP:  64; 6HR PCP: TRACE;

FARGO          CLOUDY    63  55  75 NW14      30.05R
WAHPETON ARPT  CLOUDY    63  52  67 W13       30.08S
$$

 ***** WEATHER ACROSS CENTRAL AND WESTERN NORTH DAKOTA  *****

CITY           SKY/WX    TMP DP  RH WIND       PRES   REMARKS
BISMARCK       CLOUDY    63  49  60 W10       30.18R
6HR MIN TEMP:  55; 6HR MAX TEMP:  64; 6HR PCP: TRACE;

MINOT          PTSUNNY   68  48  48 W12       30.12F
6HR MIN TEMP:  54; 6HR MAX TEMP:  70;

JAMESTOWN      PTSUNNY   63  54  72 NW10      30.11S
6HR MIN TEMP:  56; 6HR MAX TEMP:  64; 6HR PCP: TRACE;

MINOT AFB      MOSUNNY   67  47  48 W13G20    30.11F
GARRISON         N/A     65  45  48 NW12      30.16F
WILLISTON      MOSUNNY   72  40  31 W8        30.17F
6HR MIN TEMP:  52; 6HR MAX TEMP:  72;

DICKINSON      PTSUNNY   63  41  44 N7        30.20F
6HR MIN TEMP:  49; 6HR MAX TEMP:  63; 6HR PCP: TRACE;

HETTINGER      CLOUDY    63  44  50 N15G22    30.25S
6HR MIN TEMP:  44; 6HR MAX TEMP:  63;

$$

 *****  OTHER AIRPORT OBSERVATIONS IN OUR AREA  *****

CITY           SKY/WX    TMP DP  RH WIND       PRES   REMARKS
WALHALLA       NOT AVBL
GRAFTON AIRPOR FAIR      66  48  52 NW16G23   30.04S
VALLEY CITY AR MOCLDY    63  55  77 NW15      30.11S
CANDO          NOT AVBL
CAVALIER APRT  MOCLDY    66  50  55 NW15G22   30.03R
GWINNER        CLOUDY    63  54  72 W10       30.11R
SHEYENNE NWR     N/A     64  53  67 NW12      29.95S
ROLLA          FAIR      64  45  48 NW16G23   30.10R
 ***** THE ABOVE OBSERVATIONS ARE NON NWS ARE NOT QUALITY
       CONTROLLED AND MAY MIS-REPORT RAIN FOR SNOW...
$$

  *****  WEATHER ACROSS NORTHERN MINNESOTA  *****

CITY           SKY/WX    TMP DP  RH WIND       PRES   REMARKS
FLAG ISLAND    CLOUDY    61  55  82 NW10      29.91R
WARROAD        PTSUNNY   61  55  82 NW18      29.95R
ROSEAU         MOSUNNY   61  54  77 NW10      29.96R
HALLOCK        MOSUNNY   64  54  68 N15       30.00R
THF RVR FALLS  CLOUDY    59  54  83 NW14G23   30.02R
6HR MIN TEMP:  56; 6HR MAX TEMP:  60; 6HR PCP: TRACE;

BAUDETTE       PTSUNNY   68  58  70 W15G23    29.90R
6HR MIN TEMP:  54; 6HR MAX TEMP:  68; 6HR PCP: TRACE;

WASKISH        PTSUNNY   63  59  88 W18       29.94R
CROOKSTON      PTSUNNY   63  54  72 N16       30.03R
STEPHEN NDAWN    N/A     66  50  55 NW14        N/A
GREENBUSH NDAW   N/A     64  54  68 N16         N/A
$$
  *****  WEATHER ACROSS CENTRAL AND WEST MINNESOTA  *****

CITY           SKY/WX    TMP DP  RH WIND       PRES   REMARKS
FOSSTON        CLOUDY    61  54  77 W13G18    30.02R
BEMIDJI        CLOUDY    63  56  78 W17       29.99R
PARK RAPIDS    CLOUDY    64  56  75 W15       30.02R
6HR MIN TEMP:  56; 6HR MAX TEMP:  64; 6HR PCP: TRACE;

ELBOW LAKE     CLOUDY    63  53  72 NW12      30.09R
WADENA         CLOUDY    61  54  77 W15G21    30.05R
DETROIT LAKES  CLOUDY    63  54  72 W10       30.05S
MOORHEAD       PTSUNNY   63  54  72 NW15G23   30.06R
FERGUS FALLS   CLOUDY    63  54  72 W12G18    30.09R
MORRIS MN      CLOUDY    66  54  63 W12G17    30.09S
STAPLES        CLOUDY    63  52  67 W13G21    30.05S
$$
  *****  WEATHER ELSEWHERE ACROSS MINNESOTA  *****

CITY           SKY/WX    TMP DP  RH WIND       PRES   REMARKS
DULUTH         PTSUNNY   70  54  56 W20G26    29.96R
6HR MIN TEMP:  57; 6HR MAX TEMP:  72;

INTRNTL FALLS    N/A     66  57  72 W10       29.90R
6HR MIN TEMP:  52; 6HR MAX TEMP:  66; 6HR PCP: TRACE;

ELY            CLOUDY    64  52  63 W13G22    29.92S
CLOQUET        CLOUDY    66  50  55 W14G21    29.98S
WHEATON        PTSUNNY   70  55  60 W14       30.10R
BRAINERD       CLOUDY    62  52  69 W14       30.05R
6HR MIN TEMP:  55; 6HR MAX TEMP:  65;

HIBBING        CLOUDY    61  53  75 VRB6      29.96R
6HR MIN TEMP:  49; 6HR MAX TEMP:  63;

ALEXANDRIA     CLOUDY    62  52  69 W15       30.09R
6HR MIN TEMP:  55; 6HR MAX TEMP:  62;

SAINT CLOUD    MOSUNNY   68  53  58 W15G24    30.06S
6HR MIN TEMP:  56; 6HR MAX TEMP:  68;

MINNEAPOLIS    CLOUDY    71  53  52 W15       30.06R
6HR MIN TEMP:  62; 6HR MAX TEMP:  72;

$$

  *****  WEATHER ACROSS SOUTH DAKOTA  *****

CITY           SKY/WX    TMP DP  RH WIND       PRES   REMARKS
SIOUX FALLS    PTSUNNY   70  54  56 W12       30.16S
6HR MIN TEMP:  58; 6HR MAX TEMP:  70;

BROOKINGS      PTSUNNY   65  53  65 NW12      30.14F
WATERTOWN      PTSUNNY   65  51  60 W14       30.14R
6HR MIN TEMP:  55; 6HR MAX TEMP:  65;

HURON          SUNNY     69  50  50 NW14      30.16S
6HR MIN TEMP:  50; 6HR MAX TEMP:  69;

SISSETON         N/A     66  52  60 NW18G26   30.09S
ABERDEEN       CLOUDY    66  49  54 NW17      30.14S
6HR MIN TEMP:  48; 6HR MAX TEMP:  66;

MITCHELL       SUNNY     69  53  56 NW13      30.18F
PIERRE         PTSUNNY   69  47  45 W16G24    30.20F
6HR MIN TEMP:  51; 6HR MAX TEMP:  69;

MOBRIDGE       CLOUDY    64  46  52 NW14      30.17R
RAPID CITY     CLOUDY    64  44  48 N8        30.28F
6HR MIN TEMP:  53; 6HR MAX TEMP:  64; 6HR PCP: TRACE;

$$

  *****  SOME WEATHER IN NEARBY STATES *****

CITY           SKY/WX    TMP DP  RH WIND       PRES   REMARKS
GLASGOW MT     SUNNY     67  42  40 SW9G17    30.20F
6HR MIN TEMP:  48; 6HR MAX TEMP:  69;

GREAT FALLS MT SUNNY     66  37  34 VRB5      30.25F
6HR MIN TEMP:  38; 6HR MAX TEMP:  66;

CHEYENNE WY    MOSUNNY   59  43  55 E8        30.33F
6HR MIN TEMP:  46; 6HR MAX TEMP:  59;

SCOTTSBLUFF NE CLOUDY    65  44  46 E10       30.30F
6HR MIN TEMP:  52; 6HR MAX TEMP:  65;

OMAHA NE       CLOUDY    71  63  75 N9        30.14S
6HR MIN TEMP:  58; 6HR MAX TEMP:  71;

DES MOINES IA  LGT RAIN  73  63  70 E6        30.09F
6HR MIN TEMP:  67; 6HR MAX TEMP:  73; 6HR PCP: TRACE;

DAVENPORT IA   CLOUDY    77  65  66 NW6       30.09S
6HR MIN TEMP:  69; 6HR MAX TEMP:  77;

CHICAGO IL     PTSUNNY   79  67  66 W5        30.04S
6HR MIN TEMP:  72; 6HR MAX TEMP:  80;

EAU CLAIRE WI  MOSUNNY   76  59  55 W9G20     30.02S
6HR MIN TEMP:  61; 6HR MAX TEMP:  77;

LA CROSSE WI   PTSUNNY   79  60  52 W10       30.05S
6HR MIN TEMP:  65; 6HR MAX TEMP:  80;

$$

  *****  SOME NATIONAL WEATHER *****

CITY           SKY/WX    TMP DP  RH WIND       PRES   REMARKS
LA GUARDIA NY  PTSUNNY   85  64  49 S20       30.04F
6HR MIN TEMP:  75; 6HR MAX TEMP:  86;

RALEIGH NC     PTSUNNY   89  66  46 VRB3      30.14F HX  91
6HR MIN TEMP:  70; 6HR MAX TEMP:  90;

ATLANTA GA     PTSUNNY   88  71  57 W5        30.18F HX  94
6HR MIN TEMP:  73; 6HR MAX TEMP:  88;

NEW ORLEANS LA TSTM      80  75  84 SE16      30.10R
6HR MIN TEMP:  79; 6HR MAX TEMP:  89; 6HR PCP:  0.75;

OKLAHOMA CITY  PTSUNNY   93  67  42 W10       30.08F HX  96
6HR MIN TEMP:  71; 6HR MAX TEMP:  93;

ALBUQUERQUE NM MOSUNNY   75  47  36 SW5       30.26F
6HR MIN TEMP:  58; 6HR MAX TEMP:  75;

SALT LAKE CITY PTSUNNY   74  26  16 VRB5      30.09F
6HR MIN TEMP:  55; 6HR MAX TEMP:  74;

LOS ANGELES CA MOSUNNY   72  60  66 VRB6      29.96F
6HR MIN TEMP:  64; 6HR MAX TEMP:  72;

BOISE ID       SUNNY    C1F1C2F2C3F3C4F4C5F5C6F6C7F7C8F8C9F9CaFaCbFbCcFcCd!


USA.gov is the U.S. government's official web portal to all federal, state and local government web resources and services.